Regional Weather Roundup
Issued by NWS

Home | Current Version | Previous Version | Graphics & Text | Print | Product List | Glossary On
Versions: 1 2 3 4 5 6 7 8 9 10 11 12 13 14 15 16 17 18 19 20 21 22 23 24 25 26 27 28 29 30 31 32 33 34 35 36 37 38 39 40 41 42 43 44 45 46 47 48 49 50
000
ASUS43 KDTX 031310
RWRMI
MICHIGAN HOURLY REGIONAL WEATHER ROUNDUP
NATIONAL WEATHER SERVICE DETROIT/PONTIAC MI
900 AM EDT TUE MAY 03 2016

NOTE: "FAIR" INDICATES FEW OR NO CLOUDS BELOW 12,000 FEET WITH NO
SIGNIFICANT WEATHER AND/OR OBSTRUCTION TO VISIBILITY.

MIZ047>049-052>055-059>063-066>070-074>076-081>083-031400-
SOUTHEAST LOWER MICHIGAN

CITY           SKY/WX    TMP DP  RH WIND       PRES   REMARKS
ADRIAN         PTSUNNY   51  43  74 N7        29.94F
ALMA           FAIR      48  44  84 CALM      29.94S
ANN ARBOR      FAIR      52  44  74 N6        29.93F
BAD AXE        FAIR      50  40  68 W5        29.93S
CARO           FAIR      49  40  73 CALM      29.93S
DETROIT CITY   CLOUDY    48  42  80 CALM      29.94S HAZE
DETROIT        FOG       46  46 100 CALM      29.94S VSB 1/4
FLINT          FAIR      49  44  83 CALM      29.94F
GROSSE ILE     FAIR      48  46  93 CALM      29.92S FOG
HILLSDALE      CLOUDY    49  41  71 CALM      29.93F
HOWELL         FAIR      51  45  79 CALM      29.93S

CITY           SKY/WX    TMP DP  RH WIND       PRES   REMARKS
JACKSON        FAIR      52  43  71 N3        29.94S
LAMBERTVILLE   CLOUDY    53  48  83 CALM      29.94S
LANSING        FAIR      52  43  71 W3        29.95S
LAPEER         FAIR      47  42  82 CALM      29.93F
MASON          FAIR      48  45  89 CALM      29.94S
MONROE         PTSUNNY   50  48  95 N10       29.92F FOG
MT. CLEMENS    CLOUDY    47  42  82 NW2       29.92F
PONTIAC        FAIR      52  42  69 NW5       29.92F
PORT HOPE        N/A     52  33  48 W3        29.90F
PORT HURON     CLOUDY    45  39  81 NW3       29.94S
TRI CITIES     FAIR      52  36  54 SW6       29.94S
MIDLAND        FAIR      51  38  60 S3        29.92F
TROY           FAIR      49  44  83 CALM      29.94F
SAGINAW HB     FAIR      52  36  54 SW3       29.93S
$$
MIZ043>046-050>051-056>058-064>065-071>073-077>080-031400-
SOUTHWEST LOWER MICHIGAN

CITY           SKY/WX    TMP DP  RH WIND       PRES   REMARKS
BATTLE CREEK   FAIR      52  43  71 NW3       29.95S
BENTON HARBOR  FAIR      48  42  80 W3        29.97S
BIG RAPIDS     FAIR      45  40  81 CALM      29.92F
COLDWATER      FAIR      51  45  79 CALM      29.95S
FREMONT        FAIR      46  40  79 CALM      29.93F
HOLLAND        FAIR      50  40  68 W3        29.96S
GRAND RAPIDS   FAIR      51  39  63 W8        29.95S
IONIA          CLOUDY    50  41  72 W6        29.94S
KALAMAZOO      FAIR      53  43  68 NW5       29.96S
LUDINGTON      FAIR      51  35  54 SW10      29.91F
MARSHALL       FAIR      51  44  78 CALM      29.94S
MOUNT PLEASANT FAIR      52  40  62 SW3       29.92S
MUSKEGON       FAIR      51  39  63 SW5       29.95S
SOUTH HAVEN    FAIR      48  42  80 W3        29.97S
$$
MIZ016>042-031400-
NORTHERN LOWER MICHIGAN

CITY           SKY/WX    TMP DP  RH WIND       PRES   REMARKS
ALPENA         FAIR      51  33  50 VRB3      29.89F
BEAVER ISLAND  FAIR      50  31  48 S6        29.84F
BELLAIRE       FAIR      50  33  53 S6        29.88F
CADILLAC       FAIR      50  35  56 SW8       29.89F
CHARLEVOIX     FAIR      51  35  53 S6        29.89F
FRANKFORT      FAIR      53  34  50 SW7       29.88F
GAYLORD        FAIR      51  32  48 W8        29.87F
GRAYLING       FAIR      52  34  50 W8        29.89F
HARBOR SPRINGS FAIR      49  32  51 CALM      29.87F
HOUGHTON LAKE  FAIR      49  38  65 SW5       29.90F
MANISTEE       FAIR      46  36  66 S3        29.91F
OSCODA         FAIR      51  35  54 SW8       29.90F
PELLSTON       FAIR      50  32  50 SE5       29.86F
ROGERS CITY    PTSUNNY   53  34  48 SW3       29.89F
TRAVERSE CITY  FAIR      54  32  43 VRB6      29.87F
$$
MIZ007>008-015-031400-
EASTERN UPPER MICHIGAN

CITY           SKY/WX    TMP DP  RH WIND       PRES   REMARKS
KINROSS          N/A     45  36  70 S6        29.85F
MACKINAC ISLAN FAIR      48  31  52 S6        29.85F
NEWBERRY       FAIR      48  33  55 S13       29.82F
S. S. MARIE    FAIR      40  35  83 E5        29.85F
MUNISING         N/A     47  34  60 S9        29.78F
$$
MIZ004>006-011>014-085-031400-
CENTRAL UPPER MICHIGAN

CITY           SKY/WX    TMP DP  RH WIND       PRES   REMARKS
MANISTIQUE     FAIR      44  37  74 S8        29.83S
ESCANABA       FAIR      48  37  66 CALM      29.82F
MENOMINEE      FAIR      48  36  61 W6        29.84F
SAWYER-GWINN   PTSUNNY   41  34  75 SW5       29.81F
$$
MIZ001>003-009>011-084-031400-
WESTERN UPPER MICHIGAN

CITY           SKY/WX    TMP DP  RH WIND       PRES   REMARKS
IRON MOUNTAIN  FAIR      52  33  48 W6        29.80F
HOUGHTON       FAIR      56  30  37 W16       29.71F
COPPER HARBOR    N/A     50  34  54 VRB7      29.68F
IRONWOOD         N/A     54  34  47 W12G17    29.76F
$$

ABBREVIATIONS USED IN REMARKS
   TC - TEMPERATURE IN CELSIUS
  WCI - WIND CHILL INDEX
   HX - HEAT INDEX
  VSB - VISIBILITY




USA.gov is the U.S. government's official web portal to all federal, state and local government web resources and services.